When you browse on this site, cookies collect data to enhance your experience and personalize the content and advertising you see.
Visit our Privacy Policy to learn more. By continuing to use the site, you agree to this use of cookies and data.
  • In Czech Republic
  • List of Countries
  • For 7 days
  • Water Temperature
  • Weather Map
  • Weather Widgets
  • user-avatar
    Login

    Hourly Weather Varzi-Omga

    Today, 16 December, Monday

    Time Temperature Precipitation Wind Pressure Humidity
    00:00 -10°C° 0 mm 3 mps 758 mmHg 80%
    01:00 -10°C° 0 mm 3 mps 757 mmHg 81%
    02:00 -10°C° 0 mm 3 mps 757 mmHg 81%
    03:00 -10°C° 0 mm 3 mps 757 mmHg 82%
    04:00 -10°C° 0 mm 3 mps 757 mmHg 82%
    05:00 -10°C° 0 mm 3 mps 756 mmHg 84%
    06:00 -12°C° 0 mm 3 mps 756 mmHg 86%
    07:00 -12°C° 0 mm 3 mps 755 mmHg 87%
    08:00 -11°C° 0 mm 4 mps 755 mmHg 88%
    09:00 -11°C° 0 mm 4 mps 755 mmHg 89%
    10:00 -11°C° 0 mm 4 mps 755 mmHg 90%
    11:00 -10°C° 0.1 mm 4 mps 755 mmHg 91%
    12:00 -9°C° 0.1 mm 4 mps 754 mmHg 93%
    13:00 -8°C° 0.1 mm 4 mps 754 mmHg 94%
    14:00 -8°C° 0.1 mm 4 mps 753 mmHg 94%
    15:00 -8°C° 0.1 mm 5 mps 753 mmHg 94%
    16:00 -8°C° 0.1 mm 5 mps 753 mmHg 94%
    17:00 -8°C° 0.1 mm 5 mps 752 mmHg 94%
    18:00 -8°C° 0.1 mm 5 mps 751 mmHg 94%
    19:00 -8°C° 0.1 mm 5 mps 751 mmHg 95%
    20:00 -8°C° 0.5 mm 5 mps 750 mmHg 95%
    21:00 -7°C° 0.5 mm 5 mps 750 mmHg 95%
    22:00 -7°C° 0.5 mm 5 mps 750 mmHg 96%
    23:00 -7°C° 0.3 mm 5 mps 749 mmHg 95%

    Tomorrow, 17 December, Tuesday

    Time Temperature Precipitation Wind Pressure Humidity
    00:00 -5°C° 0.3 mm 4 mps 749 mmHg 95%
    01:00 -5°C° 0.3 mm 4 mps 749 mmHg 95%
    02:00 -5°C° 0.1 mm 4 mps 749 mmHg 95%
    03:00 -5°C° 0.1 mm 4 mps 749 mmHg 95%
    04:00 -5°C° 0.1 mm 3 mps 749 mmHg 96%
    05:00 -5°C° 0.1 mm 3 mps 748 mmHg 96%
    06:00 -5°C° 0.1 mm 3 mps 748 mmHg 96%
    07:00 -5°C° 0.1 mm 3 mps 748 mmHg 96%
    08:00 -5°C° 0.1 mm 3 mps 748 mmHg 96%
    09:00 -5°C° 0.1 mm 3 mps 748 mmHg 96%
    10:00 -5°C° 0.1 mm 3 mps 748 mmHg 96%
    11:00 -5°C° 0.2 mm 3 mps 748 mmHg 96%
    12:00 -3°C° 0.2 mm 2 mps 747 mmHg 96%
    13:00 -3°C° 0.2 mm 2 mps 747 mmHg 97%
    14:00 -3°C° 0.1 mm 2 mps 747 mmHg 97%
    15:00 -4°C° 0.1 mm 2 mps 747 mmHg 97%
    16:00 -2°C° 0.1 mm 1 mps 747 mmHg 97%
    17:00 -2°C° 0.1 mm 1 mps 747 mmHg 97%
    18:00 -3°C° 0.1 mm 1 mps 747 mmHg 97%
    19:00 -5°C° 0.1 mm 2 mps 747 mmHg 97%
    20:00 -5°C° 0 mm 2 mps 747 mmHg 97%
    21:00 -6°C° 0 mm 2 mps 747 mmHg 97%
    22:00 -6°C° 0 mm 2 mps 746 mmHg 97%
    23:00 -5°C° 0 mm 2 mps 746 mmHg 97%

    Day after tomorrow, 18 December, Wednesday

    Time Temperature Precipitation Wind Pressure Humidity
    00:00 -5°C° 0 mm 2 mps 746 mmHg 96%
    01:00 -4°C° 0 mm 2 mps 746 mmHg 96%
    02:00 -5°C° 0 mm 2 mps 746 mmHg 96%
    03:00 -5°C° 0 mm 2 mps 745 mmHg 96%
    04:00 -5°C° 0 mm 2 mps 745 mmHg 96%
    05:00 -5°C° 0.2 mm 2 mps 745 mmHg 96%
    06:00 -5°C° 0.2 mm 2 mps 744 mmHg 97%
    07:00 -5°C° 0.2 mm 2 mps 744 mmHg 97%
    08:00 -4°C° 0.2 mm 2 mps 744 mmHg 97%
    09:00 -2°C° 0.2 mm 1 mps 744 mmHg 97%
    10:00 -2°C° 0.2 mm 1 mps 744 mmHg 97%
    11:00 -2°C° 0.1 mm 1 mps 744 mmHg 97%
    12:00 -2°C° 0.1 mm 1 mps 743 mmHg 96%
    13:00 -1°C° 0.1 mm 1 mps 743 mmHg 96%
    14:00 -4°C° 0 mm 2 mps 744 mmHg 96%
    15:00 -5°C° 0 mm 2 mps 744 mmHg 95%
    16:00 -6°C° 0 mm 2 mps 744 mmHg 95%
    17:00 -6°C° 0 mm 2 mps 745 mmHg 95%
    18:00 -7°C° 0 mm 2 mps 745 mmHg 96%
    19:00 -7°C° 0 mm 2 mps 746 mmHg 96%
    20:00 -6°C° 0 mm 2 mps 746 mmHg 96%
    21:00 -6°C° 0 mm 2 mps 746 mmHg 96%
    22:00 -5°C° 0 mm 2 mps 746 mmHg 96%
    23:00 -6°C° 0 mm 3 mps 747 mmHg 95%

    19 December, Thursday

    Time Temperature Precipitation Wind Pressure Humidity
    00:00 -6°C° 0 mm 3 mps 747 mmHg 95%
    01:00 -6°C° 0 mm 3 mps 747 mmHg 94%
    02:00 -5°C° 0 mm 2 mps 747 mmHg 95%
    03:00 -5°C° 0 mm 2 mps 747 mmHg 95%
    04:00 -5°C° 0 mm 2 mps 747 mmHg 96%
    05:00 -5°C° 0 mm 2 mps 747 mmHg 96%
    06:00 -5°C° 0 mm 2 mps 746 mmHg 96%
    07:00 -5°C° 0 mm 2 mps 746 mmHg 96%
    08:00 -6°C° 0 mm 3 mps 745 mmHg 96%
    09:00 -5°C° 0 mm 3 mps 745 mmHg 96%
    10:00 -5°C° 0 mm 4 mps 744 mmHg 96%
    11:00 -6°C° 0.4 mm 5 mps 743 mmHg 96%
    12:00 -5°C° 0.4 mm 6 mps 742 mmHg 96%
    13:00 -6°C° 0.4 mm 7 mps 741 mmHg 96%
    14:00 -6°C° 1.7 mm 7 mps 740 mmHg 96%
    15:00 -6°C° 1.7 mm 7 mps 738 mmHg 96%
    16:00 -4°C° 1.7 mm 7 mps 737 mmHg 96%
    17:00 -3°C° 0.5 mm 7 mps 736 mmHg 97%
    18:00 -2°C° 0.5 mm 7 mps 735 mmHg 98%
    19:00 -2°C° 0.5 mm 6 mps 734 mmHg 99%
    20:00 -2°C° 0.1 mm 7 mps 734 mmHg 98%
    21:00 -2°C° 0.1 mm 7 mps 733 mmHg 97%
    22:00 -3°C° 0.1 mm 7 mps 733 mmHg 96%
    23:00 -3°C° 0.2 mm 7 mps 733 mmHg 95%

    20 December, Friday

    Time Temperature Precipitation Wind Pressure Humidity
    00:00 -3°C° 0.2 mm 7 mps 732 mmHg 95%
    01:00 -3°C° 0.2 mm 7 mps 732 mmHg 95%
    02:00 -4°C° 0.1 mm 7 mps 732 mmHg 95%
    03:00 -4°C° 0.1 mm 6 mps 732 mmHg 95%
    04:00 -4°C° 0.1 mm 6 mps 732 mmHg 95%
    05:00 -4°C° 0.1 mm 6 mps 732 mmHg 94%
    06:00 -4°C° 0.1 mm 6 mps 731 mmHg 93%
    07:00 -4°C° 0.1 mm 6 mps 731 mmHg 92%
    08:00 -4°C° 0 mm 6 mps 732 mmHg 92%
    09:00 -4°C° 0 mm 7 mps 732 mmHg 92%
    10:00 -4°C° 0 mm 7 mps 733 mmHg 92%
    11:00 -6°C° 0 mm 7 mps 733 mmHg 90%
    12:00 -7°C° 0 mm 7 mps 734 mmHg 89%
    13:00 -8°C° 0 mm 7 mps 734 mmHg 87%
    14:00 -9°C° 0 mm 7 mps 734 mmHg 88%
    15:00 -9°C° 0 mm 7 mps 735 mmHg 88%
    16:00 -11°C° 0 mm 7 mps 735 mmHg 88%
    17:00 -11°C° 0 mm 7 mps 736 mmHg 88%
    18:00 -12°C° 0 mm 7 mps 736 mmHg 88%
    19:00 -12°C° 0 mm 7 mps 737 mmHg 88%
    20:00 -12°C° 0 mm 7 mps 737 mmHg 88%
    21:00 -13°C° 0 mm 7 mps 738 mmHg 87%
    22:00 -12°C° 0 mm 6 mps 738 mmHg 87%
    23:00 -12°C° 0 mm 6 mps 739 mmHg 88%

    21 December, Saturday

    Time Temperature Precipitation Wind Pressure Humidity
    00:00 -13°C° 0 mm 5 mps 739 mmHg 88%
    01:00 -13°C° 0 mm 5 mps 740 mmHg 89%
    02:00 -13°C° 0.1 mm 5 mps 740 mmHg 90%
    03:00 -13°C° 0.1 mm 5 mps 741 mmHg 90%
    04:00 -13°C° 0.1 mm 5 mps 741 mmHg 91%
    05:00 -14°C° 0 mm 5 mps 742 mmHg 91%
    06:00 -14°C° 0 mm 5 mps 742 mmHg 90%
    07:00 -15°C° 0 mm 4 mps 743 mmHg 90%
    08:00 -15°C° 0 mm 4 mps 744 mmHg 91%
    09:00 -16°C° 0 mm 4 mps 745 mmHg 91%
    10:00 -16°C° 0 mm 4 mps 745 mmHg 92%
    11:00 -15°C° 0 mm 3 mps 746 mmHg 92%
    12:00 -14°C° 0 mm 3 mps 747 mmHg 92%
    13:00 -14°C° 0 mm 3 mps 747 mmHg 92%
    14:00 -15°C° 0 mm 3 mps 748 mmHg 92%
    15:00 -15°C° 0 mm 3 mps 748 mmHg 93%
    16:00 -15°C° 0 mm 2 mps 749 mmHg 93%
    17:00 -15°C° 0 mm 2 mps 750 mmHg 94%
    18:00 -15°C° 0 mm 2 mps 750 mmHg 94%
    19:00 -16°C° 0 mm 2 mps 751 mmHg 94%
    20:00 -16°C° 0 mm 2 mps 751 mmHg 94%
    21:00 -17°C° 0 mm 2 mps 752 mmHg 94%
    22:00 -17°C° 0 mm 2 mps 752 mmHg 94%
    23:00 -17°C° 0 mm 2 mps 753 mmHg 94%
    Show more